Regional Weather Roundup
Issued by NWS

Home | Current Version | Previous Version | Graphics & Text | Print | Product List | Glossary On
Versions: 1 2 3 4 5 6 7 8 9 10 11 12 13 14 15 16 17 18 19 20 21 22 23 24 25 26 27 28 29 30 31 32 33 34 35 36 37 38 39 40 41 42 43 44 45 46 47 48 49 50
000
ASUS43 KOAX 161810
RWRNE

WEATHER ROUNDUP FOR NEBRASKA
NATIONAL WEATHER SERVICE OMAHA NE
100 PM CDT WED APR 16 2014

NOTES: SATELLITE DATA IS BEING USED TO AUGMENT CLOUD COVER ABOVE
       12000 FEET.
       "FAIR" INDICATES FEW OR NO CLOUDS BELOW 12,000 FEET WITH NO
       SIGNIFICANT WEATHER AND/OR OBSTRUCTIONS TO VISIBILITY.

  * THESE STATIONS DO NOT REPORT WEATHER SUCH AS RAIN...SNOW OR FOG.

NEZ001>004-019>022-054>056-161900-
NEBRASKA PANHANDLE

CITY           SKY/WX    TMP DP  RH WIND       PRES   REMARKS
SCOTTSBLUFF    MOSUNNY   52  25  35 NW25G35   29.92R
6HR MIN TEMP:  40; 6HR MAX TEMP:  53;

ALLIANCE       CLOUDY    44  37  76 N23G31    29.91R
6HR MIN TEMP:  38; 6HR MAX TEMP:  44; 6HR PCP:  0.01;

CHADRON        CLOUDY    44  39  82 NE13G18   29.93R
6HR MIN TEMP:  38; 6HR MAX TEMP:  44; 6HR PCP:  0.12;

SIDNEY         PTSUNNY   50  27  40 N31G37    29.91S
6HR MIN TEMP:  38; 6HR MAX TEMP:  52;

$$

NEZ057>060-069>072-079>082-161900-
SOUTHWEST NEBRASKA

CITY           SKY/WX    TMP DP  RH WIND       PRES   REMARKS
NORTH PLATTE   PTSUNNY   51  35  54 N26G38    29.83R
6HR MIN TEMP:  33; 6HR MAX TEMP:  53;

IMPERIAL         N/A     55  34  45 NW29G36   29.85R
6HR MIN TEMP:  44; 6HR MAX TEMP:  56;

LEXINGTON      MOSUNNY   55  38  54 NW28G37   29.78R
MCCOOK         PTSUNNY   58  35  42 NW24G35   29.82R
6HR MIN TEMP:  41; 6HR MAX TEMP:  59;

$$

NEZ005>010-023>029-035>040-094-161900-
NORTH CENTRAL NEBRASKA

CITY           SKY/WX    TMP DP  RH WIND       PRES   REMARKS
VALENTINE      CLOUDY    34  30  85 NW16G30   29.89R WCI  24
6HR MIN TEMP:  34; 6HR MAX TEMP:  39; 6HR PCP:  0.01;

AINSWORTH      CLOUDY    35  32  87 NW23G30   29.85R WCI  23
BROKEN BOW     CLOUDY    44  33  65 NW29      29.79R
6HR MIN TEMP:  41; 6HR MAX TEMP:  50;

ORD            CLOUDY    42  32  67 NW26G36   29.76R
6HR MIN TEMP:  42; 6HR MAX TEMP:  52;

$$

NEZ041-046>049-061>064-073>077-083>087-161900-
SOUTH CENTRAL NEBRASKA

CITY           SKY/WX    TMP DP  RH WIND       PRES   REMARKS
GRAND ISLAND   FAIR      60  37  42 NW22G31   29.72R
6HR MIN TEMP:  46; 6HR MAX TEMP:  60;

HASTINGS       PTSUNNY   60  39  45 NW23G33   29.72R
6HR MIN TEMP:  44; 6HR MAX TEMP:  61;

KEARNEY *      PTSUNNY   55  37  50 NW23G29   29.75R
YORK           FAIR      59  32  36 W15G22    29.69R
$$

NEZ011>018-030>034-042>045-161900-
NORTHEAST NEBRASKA

CITY           SKY/WX    TMP DP  RH WIND       PRES   REMARKS
NORFOLK        FAIR      54  34  46 NW17      29.67R
6HR MIN TEMP:  46; 6HR MAX TEMP:  56;

BLAIR          FAIR      60  26  27 S35G40    29.68F
COLUMBUS *     FAIR      57  28  33 SW14G20   29.68S
FREMONT        FAIR      61  26  26 S18G30    29.69F
TEKAMAH        FAIR      62  26  25 S33G40    29.69F
6HR MIN TEMP:  47; 6HR MAX TEMP:  62;

$$

NEZ050>053-065>068-078-088>093-161900-
SOUTHEAST NEBRASKA

CITY           SKY/WX    TMP DP  RH WIND       PRES   REMARKS
LINCOLN        FAIR      63  26  24 S25G35    29.71S
6HR MIN TEMP:  50; 6HR MAX TEMP:  64;

OMAHA EPPLEY   CLOUDY    60  28  29 S23G32    29.70F
6HR MIN TEMP:  46; 6HR MAX TEMP:  60;

FALLS CITY     FAIR      62  29  28 S29G43    29.79F
6HR MIN TEMP:  46; 6HR MAX TEMP:  63;

$$

NEZ044-045-051>053-067-161900-
OMAHA AREA

CITY           SKY/WX    TMP DP  RH WIND       PRES   REMARKS
OMAHA EPPLEY   CLOUDY    60  28  29 S23G32    29.70F
6HR MIN TEMP:  46; 6HR MAX TEMP:  60;

BLAIR          FAIR      60  26  27 S35G40    29.68F
FREMONT        FAIR      61  26  26 S18G30    29.69F
$$



USA.gov is the U.S. government's official web portal to all federal, state and local government web resources and services.